Location: G�ndlingen
(48.0142°N, 7.6396°E)
Time: 17:30:11
(UTC+00:00)

Cosmos 1825 - Pass Details

Date: 05 July 2020
Orbit: 502 x 509 km, 82.5° (Epoch: 12 August)

Event Time Altitude Azimuth Distance (km) Brightness Sun altitude
Exits shadow 23:32:49 17° 254° (WSW) 1,338 4.1 -19.3°
Maximum altitude 23:34:28 22° 289° (WNW) 1,140 4.1 -19.3°
Drops below altitude 10° 23:37:31 10° 343° (NNW) 1,738 5.9 -19.3°
Sets 23:40:01 0° 358° (N) 2,630 7.5 -19.3°
